Regional Weather Roundup
Issued by NWS

Home | Current Version | Previous Version | Graphics & Text | Print | Product List | Glossary On
Versions: 1 2 3 4 5 6 7 8 9 10 11 12 13 14 15 16 17 18 19 20 21 22 23 24 25 26 27 28 29 30 31 32 33 34 35 36 37 38 39 40 41 42 43 44 45 46 47 48 49 50
000
ASUS43 KMKX 271721
RWRWI

WISCONSIN REGIONAL WEATHER ROUNDUP
NATIONAL WEATHER SERVICE MILWAUKEE/SULLIVAN WI
1200 PM CDT WED JUL 27 2016

NOTE: "FAIR" INDICATES FEW OR NO CLOUDS BELOW 12,000 FEET WITH NO
SIGNIFICANT WEATHER AND/OR OBSTRUCTIONS TO VISIBILITY.

WIZ001-002-006>008-014>016-023>028-271800-
NORTHWEST WISCONSIN

CITY           SKY/WX    TMP DP  RH WIND       PRES   REMARKS
SUPERIOR ARPT  LGT RAIN  64  59  85 NE12G17   30.03R
ASHLAND        CLOUDY    67  63  87 NE10      30.01S
HAYWARD        CLOUDY    70  66  87 CALM      30.01F
SIREN          CLOUDY    73  68  83 SE3       29.97F
CUMBERLAND     CLOUDY    72  63  73 SE7       29.99F
RICE LAKE      CLOUDY    76  65  68 SE8       30.00F
CHETEK         CLOUDY    76  67  71 S6        29.99F
LADYSMITH      CLOUDY    74  66  76 CALM      30.03F
EAU CLAIRE     CLOUDY    80  69  69 E6        29.98F HX  83
MENOMONIE      CLOUDY    82  69  66 SE6       29.98S HX  85
NEW RICHMOND   PTSUNNY   80  67  64 S7        29.96F HX  82
OSCEOLA        CLOUDY    76  71  82 SE5       29.98F
$$

WIZ003>005-009-010-017-018-271800-
NORTH CENTRAL WISCONSIN

CITY           SKY/WX    TMP DP  RH WIND       PRES   REMARKS
MANITOWISH WTR CLOUDY    71  67  87 CALM      30.04R
ARBOR VITAE      N/A     72  68  88 W3        30.04R
WOODRUFF         N/A     72  68  88 W3        30.04R
RHINELANDER    CLOUDY    70  64  81 E3        30.03F
EAGLE RIVER    CLOUDY    69  65  89 E5        30.01F
LAND O LAKES   LGT RAIN  67  66  96 CALM      30.03F
PHILLIPS       CLOUDY    68  65  93 CALM      30.02S
TOMAHAWK       LGT RAIN  68  65  90 CALM      30.04S
MEDFORD        CLOUDY    69  67  93 SE3       30.02F
MERRILL        CLOUDY    69  66  90 CALM      30.02F
$$

WIZ029-030-035-036-043>047-271800-
CENTRAL WISCONSIN

CITY           SKY/WX    TMP DP  RH WIND       PRES   REMARKS
WAUSAU         CLOUDY    71  66  84 SE9       30.00F
MOSINEE        MOSUNNY   73  68  83 E7        30.03F
MARSHFIELD     MOSUNNY   78  65  63 SE6       30.02F HX  80
STEVENS POINT  CLOUDY    74  66  77 SE8       30.03F
WAUPACA        CLOUDY    69  68  97 NE5       30.03F
WAUTOMA        PTSUNNY   74  64  71 N21       30.02R
WISC RAPIDS    CLOUDY    79  64  60 E9        30.03F HX  81
CAMP DOUGLAS   PTSUNNY   81  72  74 W5        30.00S HX  84
$$

WIZ011>013-019>022-031-037>040-048>050-271800-
NORTHEAST WISCONSIN

CITY           SKY/WX    TMP DP  RH WIND       PRES   REMARKS
ANTIGO         CLOUDY    67  65  92 CALM      30.04F
SHAWANO        LGT RAIN  72  67  87 CALM      30.04F
OCONTO         CLOUDY    71  71 100 NW3       30.02F
STURGEON BAY   CLOUDY    73  65  75 W9        30.04R
GREEN BAY      MOSUNNY   80  67  64 N13       30.03R HX  82
MANITOWOC      CLOUDY    79  69  71 NW6       30.01R HX  81
APPLETON       PTSUNNY   75  61  60 N14       30.03R
CLINTONVILLE   RAIN      70  64  83 SE6       30.03F
OSHKOSH        PTSUNNY   84  68  58 W6        30.01R HX  87
$$

WIZ032>034-041-042-053>061-271800-
SOUTHWEST WISCONSIN

CITY           SKY/WX    TMP DP  RH WIND       PRES   REMARKS
LA CROSSE      MOSUNNY   84  66  54 SE5       29.98F HX  86
SPARTA         PTSUNNY   83  67  58 CALM      30.00F HX  85
VIROQUA        MOSUNNY   82  64  55 SW5       30.02F HX  84
BOSCOBEL       SUNNY     86  64  47 CALM      29.99F HX  87
PRAIRIE DU CHI MOSUNNY   83  65  54 E3        29.99F HX  84
PLATTEVILLE    MOSUNNY   81  66  60 CALM      30.02F HX  83
$$

WIZ056-057-062-063-064-067-068-271800-
SOUTH CENTRAL WISCONSIN

CITY           SKY/WX    TMP DP  RH WIND       PRES   REMARKS
REEDSBURG      MOSUNNY   82  70  67 S6        30.01S HX  86
BARABOO/DELLS  MOSUNNY   83  67  58 S5        30.02S HX  86
LONE ROCK      MOSUNNY   83  66  56 W6        30.01F HX  85
MINERAL POINT  MOSUNNY   82  68  61 CALM      30.03F HX  85
MADISON        PTSUNNY   83  68  60 SW6       30.01F HX  86
MIDDLETON      PTSUNNY   84  67  54 W5        30.03S HX  87
WATERTOWN      MOSUNNY   84  71  64 SW6       30.01S HX  88
MONROE         MOSUNNY   82  64  54 W5        30.05S HX  84
JANESVILLE     NOT AVBL
$$

WIZ051-052-058>065-066-070>072-271800-
SOUTHEAST WISCONSIN

CITY           SKY/WX    TMP DP  RH WIND       PRES   REMARKS
MILWAUKEE      MOSUNNY   87  67  51 W7        30.01R HX  90
WAUKESHA       MOSUNNY   81  64  57 W6        30.03S HX  82
MILWAUKEE/TIMM PTSUNNY   84  63  48 W5        30.01S HX  85
RACINE         CLOUDY    86  66  51 VRB5      30.03R HX  88
BURLINGTON     MOSUNNY   84  66  53 SW10      30.02S HX  86
KENOSHA        PTSUNNY   84  67  56 W6        30.02R HX  86
FOND DU LAC    PTSUNNY   84  70  62 W5        30.00F HX  88
SHEBOYGAN      PTSUNNY   84  69  60 CALM      30.00S HX  88
WEST BEND      PTSUNNY   84  66  54 W8        30.01R HX  86
JUNEAU         SUNNY     82  70  68 CALM      30.02F HX  85
$$

LSZ147-162-271800-
LAKE SUPERIOR

STATION/POSITION TIME  TEMP    WIND        PRES    WAVE
                       AIR SEA DIR/SP/G            HT/PER
                 (UTC) (F)     (DEG/KT/KT) (MB)    (FT/S)
W MID LAKE BUOY  1650   62 60   50/ 14/ 17 1016.3F   1/ 3
DEVILS ISLAND    1700   63      70/ 17/ 21 1016.6R
PORT WING        1600   67      40/ 16/ 20 1016.3R
SAXON HARBOR     1600   71      50/  5/  7 1015.6
$$

LMZ867-665-643>646-271800-
LAKE MICHIGAN

STATION/POSITION TIME  TEMP    WIND        PRES    WAVE
                       AIR SEA DIR/SP/G            HT/PER
                 (UTC) (F)     (DEG/KT/KT) (MB)    (FT/S)
CHAMBERS ISLAND  1600   75     180/  2/  6 1015.6R
S GREEN BAY BUOY 1500   74 75  310/  4/  4   N/A
N MID LAKE BUOY  1650   71 70  290/  4/  6 1014.9S   1
NORTHPORT PIER   1600   75     300/  4/  8 1015.6S
SISTER BAY       1606   75     320/  6/  7   N/A
ALGOMA LAKESHORE 1613          320/ 12/ 16   N/A
KEWAUNEE LAKESHO 1600   71     210/  2/  4 1015.8R
SHEBOYGAN LAKESH 1700   74     130/  4/  5 1015.8F
PORT WASHINGTON  1600   78     180/  7/  9 1015.9F
ATWATER BUOY     1700   70 61  170/  6/  8 1017.5S
MILWAUKEE LAKESH 1610   76     160/  4/  6   N/A
S MID LAKE BUOY  1650   76 76  260/  4/  4 1015.7R   0
KENOSHA   LAKESH 1700   77     140/  7/  9 1015.9R
$$

TC  - TEMPERATURE IN CELSIUS
VSB - VISIBILITY IN STATUTE MILES
WCI - WIND CHILL INDEX
HX  - HEAT INDEX




USA.gov is the U.S. government's official web portal to all federal, state and local government web resources and services.